#timestamp,LO_Frequency,Hit,StdDev 
1556215215.1,286047002.3,N
1556215235.9,286047000.0,N
1556215255.7,286047000.4,N
1556215275.5,286047002.8,N
1556215295.4,286047001.0,N
1556215315.2,286047000.7,N
1556215335.1,286046996.5,N
1556215336.0,286046996.5,N
1556215355.8,286046998.3,N
1556215375.6,286046998.5,N
1556215395.5,286047002.6,N
1556215415.3,286047002.6,N
1556215435.1,286047000.6,N
1556215455.9,286047001.9,N
1556215475.7,286046999.8,N
1556215495.6,286047002.6,N
1556215515.4,286047001.5,N
1556215535.2,286047001.8,N
1556215555.1,286047002.0,N
1556215556.0,286047002.0,N
1556215575.8,286047002.6,N
1556215595.6,286046998.7,N
1556215615.5,286046999.7,N
1556215635.3,286047004.4,N
1556215655.2,286047001.6,N
1556215675.9,286046999.8,N
1556215695.7,286047000.0,N
1556215715.6,286047002.5,N
1556215735.4,286047001.4,N
1556215755.2,286047001.5,N
1556215775.1,286047003.7,N
1556215776.0,286047003.7,N
1556215795.8,286047002.0,N
1556215815.7,286046999.9,N
1556215835.5,286047001.9,N
1556215855.3,286046998.1,N
1556215875.2,286047001.0,N
1556215895.0,286046999.9,N
1556215895.9,286046999.9,N
1556215915.8,286046999.7,N
1556215935.6,286047000.8,N
1556215955.4,286047000.4,N
1556215975.3,286046999.7,N
1556215995.1,286047000.2,N
1556216015.8,286047001.5,N
1556216035.7,286047000.5,N
1556216055.5,286046999.7,N
1556216075.4,286047000.2,N
1556216095.2,286047000.6,N
1556216115.0,286046998.2,N
1556216115.9,286046998.2,N
1556216135.8,286047000.3,N
1556216155.6,286047002.0,N
1556216175.4,286047000.4,N
1556216195.7,286047000.6,N
1556216215.5,286046998.1,N
1556216235.4,286047002.7,N
1556216255.2,286046999.8,N
1556216275.0,286047000.0,N
1556216276.0,286047000.0,N
1556216295.8,286047000.7,N
1556216315.6,286047000.0,N
1556216335.5,286047000.1,N
1556216355.3,286047000.4,N
1556216375.1,286046999.9,N
1556216395.9,286047001.3,N
1556216415.7,286047005.5,Y
1556216435.6,286047003.7,P
1556216455.4,286046999.8,N
1556216475.2,286047000.5,N
1556216495.1,286046999.7,N
1556216496.0,286046999.7,N
1556216515.8,286047004.4,Y
1556216535.6,286047001.9,P
1556216555.5,286047001.4,N
1556216575.3,286047003.2,P
1556216595.2,286047004.4,Y
1556216615.9,286047002.5,P
1556216635.7,286047002.4,P
1556216655.6,286046998.9,P
1556216675.4,286046999.3,N
1556216695.2,286047000.9,N
1556216715.1,286047000.8,N
1556216716.0,286047000.8,N
1556216735.8,286047000.7,N
1556216755.7,286046999.3,N
1556216775.5,286046999.2,N
1556216795.3,286046999.0,N
1556216815.2,286046999.2,N
1556216835.0,286046999.3,N
1556216835.9,286046999.3,N
1556216855.7,286046998.6,N
1556216875.6,286046999.5,N
1556216895.4,286047001.0,N
1556216915.3,286047001.2,N
1556216935.1,286046996.7,N
1556216936.0,286046996.7,N
1556216955.8,286046999.4,N
1556216975.7,286046999.4,N
1556216995.4,286046998.5,N
1556217015.3,286047001.4,N
1556217035.1,286047001.7,N
1556217036.0,286047001.7,N
1556217055.8,286047005.2,Y
1556217075.7,286047005.2,P
1556217095.5,286047001.8,N
1556217115.4,286047001.5,N
1556217135.2,286047001.8,N
1556217155.1,286047002.2,N
1556217156.0,286047002.2,N
1556217175.8,286047002.7,N
1556217195.2,286047000.9,N
1556217215.1,286046998.9,N
1556217216.0,286046998.9,N
1556217235.8,286046998.2,N
1556217255.6,286047000.9,N
1556217275.5,286047002.8,N
1556217295.3,286046998.2,N
1556217315.2,286047002.8,N
1556217335.9,286047000.1,N
1556217355.7,286046998.1,N
1556217375.6,286046998.8,N
1556217395.4,286046998.6,N
1556217415.2,286046998.6,N
1556217435.1,286047000.8,N
1556217436.0,286047000.8,N
1556217455.8,286046999.8,N
1556217475.7,286047000.9,N
1556217495.5,286047000.3,N
1556217515.3,286047001.5,N
1556217535.2,286047000.8,N
1556217555.0,286046998.8,N
1556217555.9,286046998.8,N
1556217575.7,286047001.0,N
1556217595.6,286047004.4,N
1556217615.4,286047001.0,N
1556217635.3,286046998.8,N
1556217655.1,286047002.4,N
1556217656.0,286047002.4,N
1556217675.8,286047002.5,N
1556217695.7,286047000.5,N
1556217715.5,286047002.1,N
1556217735.3,286047000.6,N
1556217755.2,286047002.7,N
1556217775.0,286047003.8,N
1556217775.9,286047003.8,N
1556217795.8,286047002.7,N
1556217815.6,286047000.8,N
1556217835.4,286047000.0,N
1556217855.3,286047001.0,N
1556217875.1,286047002.0,N
1556217895.8,286046999.8,N
1556217915.7,286047001.2,N
1556217935.5,286047004.0,N
1556217955.4,286047002.3,N
1556217975.2,286047003.6,N
1556217995.0,286047006.0,Y
1556217995.9,286047006.0,P
1556218015.8,286047002.0,N
1556218035.6,286047001.6,N
1556218055.5,286047002.9,N
1556218075.3,286047003.7,N
1556218095.1,286047005.0,Y
1556218115.9,286047002.6,P
1556218135.7,286047002.0,P
1556218155.5,286047000.7,N
1556218175.4,286046999.9,N
1556218195.2,286046998.3,N
1556218215.1,286046996.9,N
1556218216.0,286046996.9,N
1556218235.8,286046997.5,N
1556218255.6,286046998.0,N
1556218275.5,286046997.8,N
1556218295.3,286046997.0,N
1556218315.1,286046997.2,N
1556218335.9,286046995.5,N
1556218355.7,286046996.1,N
1556218375.5,286046996.7,N
1556218395.4,286046997.5,N
1556218415.2,286046998.0,N
1556218435.1,286046996.0,N
1556218436.0,286046996.0,N
1556218455.8,286046995.8,N
1556218475.6,286046997.1,N
1556218495.5,286046996.6,N
1556218515.3,286046997.4,N
1556218535.1,286046998.2,N
1556218555.9,286046999.2,N
1556218575.7,286046995.5,N
1556218595.6,286046997.5,N
1556218615.4,286046995.7,N
1556218635.2,286046999.2,N
1556218655.1,286046999.0,N
1556218656.0,286046999.0,N
1556218675.8,286046997.4,N
1556218695.6,286046998.5,N
1556218715.5,286046999.0,N
1556218735.3,286046996.6,Y
1556218755.2,286046999.7,P
1556218775.9,286047001.6,N
1556218795.7,286047001.7,N
